Childress, TX

10:26 AM CDT on August 19, 2017 (GMT -0500)
Childress Municipal

Weather History for KCDS - March, 2013

Change the Weather History Date:

Friday, March 15, 2013

  Actual Average Record
Temperature  
Mean Temperature 68 °F 53 °F  
Max Temperature 90 °F 67 °F 96 °F (1908)
Min Temperature 45 °F 40 °F 16 °F (1893)
Degree Days  
Heating Degree Days 0 12  
Month to date heating degree days 176 212  
Since 1 July heating degree days 2555 2772  
Cooling Degree Days 3 0  
Month to date cooling degree days 3 0  
Year to date cooling degree days 3 1  
Growing Degree Days 18 (Base 50)    
Moisture  
Dew Point 31 °F    
Average Humidity 35    
Maximum Humidity 58    
Minimum Humidity 11    
Precipitation  
Precipitation 0.00 in 0.05 in 1.75 in (1905)
Month to date precipitation T 0.69  
Year to date precipitation 3.34 2.47  
Snow  
Snow 0.00 in 0.10 in - ()
Month to date snowfall 0.0 0.3  
Since 1 July snowfall 5.5 6.7  
Snow Depth -    
Sea Level Pressure  
Sea Level Pressure 29.89 in    
Wind  
Wind Speed 12 mph (SW)    
Max Wind Speed 23 mph    
Max Gust Speed 28 mph    
Visibility 10 miles    
Events      
T = Trace of Precipitation, MM = Missing Value Source: NWS Daily Summary

Daily Weather History Graph

Daily Weather History Graph

Search for Another Location

Airport or City:

Trip Planner

Search our weather history database for the weather conditions in past years. The results will help you decide how hot, cold, wet, or windy it might be!

Date:

Astronomy

Mar. 15, 2013 Rise Set
Actual Time 7:51 AM CDT 7:49 PM CDT
Civil Twilight 7:26 AM CDT 8:14 PM CDT
Nautical Twilight 6:57 AM CDT 8:43 PM CDT
Astronomical Twilight 6:27 AM CDT 9:12 PM CDT
Moon 9:53 AM CDT (3/15) 11:52 PM CDT (3/15)
Length of Visible Light 12h 47m
Length of Day
11h 57m
Waxing Crescent, 15% of the Moon is Illuminated
Mar 15
Waxing Crescent
Mar 19
First Quarter
Mar 27
Full
Apr 2
Last Quarter
Apr 10
New

Hourly Weather History & Observations

Time (CDT) Temp. Dew Point Humidity Pressure Visibility Wind Dir Wind Speed Gust Speed Precip Events Conditions
12:53 AM 55.0 °F 35.1 °F 47% 30.03 in 10.0 mi South 10.4 mph - N/A   Clear
1:53 AM 57.9 °F 33.1 °F 39% 30.02 in 10.0 mi SW 15.0 mph - N/A   Clear
2:53 AM 54.0 °F 33.1 °F 45% 30.03 in 10.0 mi WSW 8.1 mph - N/A   Clear
3:53 AM 50.0 °F 35.6 °F 58% 30.06 in 10.0 mi West 6.9 mph - N/A   Clear
4:53 AM 51.1 °F 33.1 °F 50% 30.00 in 10.0 mi West 9.2 mph - N/A   Clear
5:53 AM 50.0 °F 32.0 °F 50% 29.99 in 10.0 mi WSW 10.4 mph - N/A   Clear
6:53 AM 46.9 °F 32.0 °F 56% 30.00 in 10.0 mi West 9.2 mph - N/A   Clear
7:53 AM 48.9 °F 33.1 °F 54% 30.01 in 10.0 mi WSW 10.4 mph - N/A   Clear
8:53 AM 54.0 °F 34.0 °F 47% 30.01 in 10.0 mi WSW 11.5 mph - N/A   Clear
9:53 AM 63.0 °F 36.0 °F 37% 29.99 in 10.0 mi West 13.8 mph - N/A   Clear
10:53 AM 71.1 °F 37.0 °F 29% 29.97 in 10.0 mi West 13.8 mph - N/A   Clear
11:53 AM 77.0 °F 33.1 °F 20% 29.95 in 10.0 mi WSW 11.5 mph - N/A   Clear
12:53 PM 81.0 °F 30.0 °F 16% 29.93 in 10.0 mi West 12.7 mph - N/A   Clear
1:53 PM 84.0 °F 30.9 °F 15% 29.89 in 10.0 mi SW 10.4 mph - N/A   Clear
2:53 PM 86.0 °F 30.0 °F 13% 29.83 in 10.0 mi SSW 11.5 mph 21.9 mph N/A   Clear
3:53 PM 88.0 °F 28.9 °F 12% 29.79 in 10.0 mi South 16.1 mph 21.9 mph N/A   Clear
4:53 PM 90.0 °F 28.0 °F 11% 29.75 in 10.0 mi SSW 19.6 mph 26.5 mph N/A   Clear
5:53 PM 87.1 °F 28.0 °F 12% 29.74 in 10.0 mi SSW 17.3 mph 24.2 mph N/A   Clear
6:53 PM 84.0 °F 27.0 °F 13% 29.73 in 10.0 mi South 15.0 mph - N/A   Clear
7:53 PM 77.0 °F 27.0 °F 16% 29.73 in 10.0 mi South 10.4 mph - N/A   Clear
8:53 PM 69.1 °F 27.0 °F 21% 29.73 in 10.0 mi SSE 11.5 mph - N/A   Clear
9:53 PM 66.0 °F 28.0 °F 24% 29.72 in 10.0 mi South 10.4 mph - N/A   Clear
10:53 PM 66.9 °F 28.0 °F 23% 29.70 in 10.0 mi South 12.7 mph - N/A   Clear
11:53 PM 60.1 °F 28.0 °F 30% 29.70 in 10.0 mi SSW 13.8 mph - N/A   Clear